owner,sensor,date,latitude,longitude,vertical_datum,wind_speed,wind_to_direction,wind_speed_of_gust,qcFlag 
TABS,ioos:station:wmo:42043:1,2017-02-02T00:00:00Z,28.9818,-94.9186,4.0,0.161245155,82.8745794,0.65,'11111222,11111222,11111222' 
TABS,ioos:station:wmo:42043:1,2017-02-02T00:30:00Z,28.9818,-94.9186,4.0,0.09,90.00042092,0.53,'11111222,11111222,11111222' 
TABS,ioos:station:wmo:42043:1,2017-02-02T01:00:00Z,28.9818,-94.9186,4.0,0.11045361,95.19483768,0.59,'11111222,11111222,11111222' 
TABS,ioos:station:wmo:42043:1,2017-02-02T01:30:00Z,28.9818,-94.9186,4.0,1.018430165,160.4978076,2.24,'11111222,11111222,11111222' 
TABS,ioos:station:wmo:42043:1,2017-02-02T02:00:00Z,28.9818,-94.9186,4.0,0.748465096,112.7968891,4.31,'11111222,11111222,11111222' 
TABS,ioos:station:wmo:42043:1,2017-02-02T02:30:00Z,28.9818,-94.9186,4.0,4.43084642,157.7185979,5.28,'11111222,11111222,11111222' 
TABS,ioos:station:wmo:42043:1,2017-02-02T03:00:00Z,28.9818,-94.9186,4.0,4.526599165,152.359639,5.31,'11111222,11111222,11111222' 
TABS,ioos:station:wmo:42043:1,2017-02-02T03:30:00Z,28.9818,-94.9186,4.0,4.167073313,157.866929,5.11,'11111222,11111222,11111222' 
TABS,ioos:station:wmo:42043:1,2017-02-02T04:00:00Z,28.9818,-94.9186,4.0,4.513103145,157.1850842,5.54,'11111222,11111222,11111222' 
TABS,ioos:station:wmo:42043:1,2017-02-02T04:30:00Z,28.9818,-94.9186,4.0,4.412085675,160.538611,5.01,'11111222,11111222,11111222' 
TABS,ioos:station:wmo:42043:1,2017-02-02T05:00:00Z,28.9818,-94.9186,4.0,4.382989847,161.2345976,5.2,'11111222,11111222,11111222' 
TABS,ioos:station:wmo:42043:1,2017-02-02T05:30:00Z,28.9818,-94.9186,4.0,5.123768145,160.5043955,6.15,'11111222,11111222,11111222' 
TABS,ioos:station:wmo:42043:1,2017-02-02T06:00:00Z,28.9818,-94.9186,4.0,4.409591818,166.6258013,5.22,'11111222,11111222,11111222' 
TABS,ioos:station:wmo:42043:1,2017-02-02T06:30:00Z,28.9818,-94.9186,4.0,3.332461553,165.7555013,3.93,'11111222,11111222,11111222' 
TABS,ioos:station:wmo:42043:1,2017-02-02T07:00:00Z,28.9818,-94.9186,4.0,2.431810025,161.7888237,2.9,'11111222,11111222,11111222' 
TABS,ioos:station:wmo:42043:1,2017-02-02T07:30:00Z,28.9818,-94.9186,4.0,2.128215215,161.6504394,2.56,'11111222,11111222,11111222' 
TABS,ioos:station:wmo:42043:1,2017-02-02T08:00:00Z,28.9818,-94.9186,4.0,1.559551217,165.518475,1.93,'11111222,11111222,11111222' 
TABS,ioos:station:wmo:42043:1,2017-02-02T08:30:00Z,28.9818,-94.9186,4.0,1.855262785,168.8114367,2.36,'11111222,11111222,11111222' 
TABS,ioos:station:wmo:42043:1,2017-02-02T09:00:00Z,28.9818,-94.9186,4.0,2.453263133,158.9795164,2.86,'11111222,11111222,11111222' 
TABS,ioos:station:wmo:42043:1,2017-02-02T09:30:00Z,28.9818,-94.9186,4.0,3.430174923,164.789077,3.85,'11111222,11111222,11111222' 
TABS,ioos:station:wmo:42043:1,2017-02-02T10:00:00Z,28.9818,-94.9186,4.0,2.634406954,162.3218659,3.37,'11111222,11111222,11111222' 
TABS,ioos:station:wmo:42043:1,2017-02-02T10:30:00Z,28.9818,-94.9186,4.0,2.452039967,159.7176988,2.82,'11111222,11111222,11111222' 
TABS,ioos:station:wmo:42043:1,2017-02-02T11:00:00Z,28.9818,-94.9186,4.0,2.743319158,166.7238445,3.09,'11111222,11111222,11111222' 
TABS,ioos:station:wmo:42043:1,2017-02-02T11:30:00Z,28.9818,-94.9186,4.0,3.264965543,154.2200442,3.73,'11111222,11111222,11111222' 
TABS,ioos:station:wmo:42043:1,2017-02-02T12:00:00Z,28.9818,-94.9186,4.0,2.740547391,149.0365263,3.11,'11111222,11111222,11111222' 
TABS,ioos:station:wmo:42043:1,2017-02-02T12:30:00Z,28.9818,-94.9186,4.0,2.123628969,137.672174,2.55,'11111222,11111222,11111222' 
TABS,ioos:station:wmo:42043:1,2017-02-02T13:00:00Z,28.9818,-94.9186,4.0,2.032953516,138.3901736,2.54,'11111222,11111222,11111222' 
TABS,ioos:station:wmo:42043:1,2017-02-02T13:30:00Z,28.9818,-94.9186,4.0,2.868327039,151.4695278,3.33,'11111222,11111222,11111222' 
TABS,ioos:station:wmo:42043:1,2017-02-02T14:00:00Z,28.9818,-94.9186,4.0,2.364487259,144.2936026,2.79,'11111222,11111222,11111222' 
TABS,ioos:station:wmo:42043:1,2017-02-02T14:30:00Z,28.9818,-94.9186,4.0,2.382141893,142.5050306,2.83,'11111222,11111222,11111222' 
TABS,ioos:station:wmo:42043:1,2017-02-02T15:00:00Z,28.9818,-94.9186,4.0,1.771157813,107.4122988,2.08,'11111222,11111222,11111222' 
TABS,ioos:station:wmo:42043:1,2017-02-02T15:30:00Z,28.9818,-94.9186,4.0,1.669041641,100.7044026,1.97,'11111222,11111222,11111222' 
TABS,ioos:station:wmo:42043:1,2017-02-02T16:00:00Z,28.9818,-94.9186,4.0,2.025956564,116.0595013,2.43,'11111222,11111222,11111222' 
TABS,ioos:station:wmo:42043:1,2017-02-02T16:30:00Z,28.9818,-94.9186,4.0,1.751142484,121.693589,2.04,'11111222,11111222,11111222' 
TABS,ioos:station:wmo:42043:1,2017-02-02T17:00:00Z,28.9818,-94.9186,4.0,1.519901313,124.0040688,1.9,'11111222,11111222,11111222' 
TABS,ioos:station:wmo:42043:1,2017-02-02T17:30:00Z,28.9818,-94.9186,4.0,2.130539838,129.6681693,2.59,'11111222,11111222,11111222' 
TABS,ioos:station:wmo:42043:1,2017-02-02T18:00:00Z,28.9818,-94.9186,4.0,3.089546892,140.3846883,3.73,'11111222,11111222,11111222' 
TABS,ioos:station:wmo:42043:1,2017-02-02T18:30:00Z,28.9818,-94.9186,4.0,3.478304185,143.8881466,4.03,'11111222,11111222,11111222' 
TABS,ioos:station:wmo:42043:1,2017-02-02T19:00:00Z,28.9818,-94.9186,4.0,1.858009688,143.315422,2.34,'11111222,11111222,11111222' 
TABS,ioos:station:wmo:42043:1,2017-02-02T19:30:00Z,28.9818,-94.9186,4.0,2.180481598,140.3965953,2.49,'11111222,11111222,11111222' 
TABS,ioos:station:wmo:42043:1,2017-02-02T20:00:00Z,28.9818,-94.9186,4.0,1.453444185,130.8154093,1.81,'11111222,11111222,11111222' 
TABS,ioos:station:wmo:42043:1,2017-02-02T20:30:00Z,28.9818,-94.9186,4.0,2.117663807,131.7462072,2.46,'11111222,11111222,11111222' 
TABS,ioos:station:wmo:42043:1,2017-02-02T21:00:00Z,28.9818,-94.9186,4.0,1.535838533,171.7646104,1.83,'11111222,11111222,11111222' 
TABS,ioos:station:wmo:42043:1,2017-02-02T21:30:00Z,28.9818,-94.9186,4.0,0.912633552,145.2654321,1.23,'11111222,11111222,11111222' 
TABS,ioos:station:wmo:42043:1,2017-02-02T22:00:00Z,28.9818,-94.9186,4.0,1.210165278,132.6561887,1.52,'11111222,11111222,11111222' 
TABS,ioos:station:wmo:42043:1,2017-02-02T22:30:00Z,28.9818,-94.9186,4.0,0.838152731,72.64559503,1.53,'11111222,11111222,11111222' 
TABS,ioos:station:wmo:42043:1,2017-02-02T23:00:00Z,28.9818,-94.9186,4.0,1.363121418,107.5048527,1.78,'11111222,11111222,11111222' 
TABS,ioos:station:wmo:42043:1,2017-02-02T23:30:00Z,28.9818,-94.9186,4.0,1.22102416,87.65271028,1.46,'11111222,11111222,11111222' 
TABS,ioos:station:wmo:42043:1,2017-02-03T00:00:00Z,28.9818,-94.9186,4.0,0.759605161,106.0493882,1.35,'11111222,11111222,11111222' 
TABS,ioos:station:wmo:42043:1,2017-02-03T00:30:00Z,28.9818,-94.9186,4.0,0.686804193,137.9510879,0.95,'11111222,11111222,11111222' 
TABS,ioos:station:wmo:42043:1,2017-02-03T01:00:00Z,28.9818,-94.9186,4.0,2.746961958,290.6780584,4.03,'11111222,11111222,11111222' 
TABS,ioos:station:wmo:42043:1,2017-02-03T01:30:00Z,28.9818,-94.9186,4.0,2.894304752,307.7012724,3.79,'11111222,11111222,11111222' 
TABS,ioos:station:wmo:42043:1,2017-02-03T02:00:00Z,28.9818,-94.9186,4.0,3.671198714,21.74318586,4.53,'11111222,11111222,11111222' 
TABS,ioos:station:wmo:42043:1,2017-02-03T02:30:00Z,28.9818,-94.9186,4.0,5.777586001,352.641082,7.17,'11111222,11111222,11111222' 
TABS,ioos:station:wmo:42043:1,2017-02-03T03:00:00Z,28.9818,-94.9186,4.0,6.050297513,0.567992192,7.69,'11111222,11111222,11111222' 
TABS,ioos:station:wmo:42043:1,2017-02-03T03:30:00Z,28.9818,-94.9186,4.0,7.372557223,15.33666501,8.63,'11111222,11111222,11111222' 
TABS,ioos:station:wmo:42043:1,2017-02-03T04:00:00Z,28.9818,-94.9186,4.0,6.189806136,14.59726403,7.46,'11111222,11111222,11111222' 
TABS,ioos:station:wmo:42043:1,2017-02-03T04:30:00Z,28.9818,-94.9186,4.0,6.882623046,10.37907015,8.35,'11111222,11111222,11111222' 
TABS,ioos:station:wmo:42043:1,2017-02-03T05:00:00Z,28.9818,-94.9186,4.0,6.380854175,10.20020449,8.0,'11111222,11111222,11111222' 
TABS,ioos:station:wmo:42043:1,2017-02-03T05:30:00Z,28.9818,-94.9186,4.0,6.61528533,20.90044848,7.83,'11111222,11111222,11111222' 
TABS,ioos:station:wmo:42043:1,2017-02-03T06:00:00Z,28.9818,-94.9186,4.0,6.596969001,22.83339032,7.9,'11111222,11111222,11111222' 
TABS,ioos:station:wmo:42043:1,2017-02-03T06:30:00Z,28.9818,-94.9186,4.0,6.550190837,37.30696381,8.06,'11111222,11111222,11111222' 
TABS,ioos:station:wmo:42043:1,2017-02-03T07:00:00Z,28.9818,-94.9186,4.0,6.894729871,35.25723578,8.04,'11111222,11111222,11111222' 
TABS,ioos:station:wmo:42043:1,2017-02-03T07:30:00Z,28.9818,-94.9186,4.0,7.353910524,44.99968431,8.79,'11111222,11111222,11111222' 
TABS,ioos:station:wmo:42043:1,2017-02-03T08:00:00Z,28.9818,-94.9186,4.0,6.499207644,50.43113844,7.91,'11111222,11111222,11111222' 
TABS,ioos:station:wmo:42043:1,2017-02-03T08:30:00Z,28.9818,-94.9186,4.0,6.280286618,49.00256084,8.04,'11111222,11111222,11111222' 
TABS,ioos:station:wmo:42043:1,2017-02-03T09:00:00Z,28.9818,-94.9186,4.0,6.015189108,39.67111452,7.04,'11111222,11111222,11111222' 
TABS,ioos:station:wmo:42043:1,2017-02-03T09:30:00Z,28.9818,-94.9186,4.0,7.307071917,29.33611777,8.52,'11111222,11111222,11111222' 
TABS,ioos:station:wmo:42043:1,2017-02-03T10:00:00Z,28.9818,-94.9186,4.0,6.933051276,23.45875877,8.32,'11111222,11111222,11111222' 
TABS,ioos:station:wmo:42043:1,2017-02-03T10:30:00Z,28.9818,-94.9186,4.0,6.995541437,14.91006844,8.6,'11111222,11111222,11111222' 
TABS,ioos:station:wmo:42043:1,2017-02-03T11:00:00Z,28.9818,-94.9186,4.0,6.674608603,13.86944355,8.13,'11111222,11111222,11111222' 
TABS,ioos:station:wmo:42043:1,2017-02-03T11:30:00Z,28.9818,-94.9186,4.0,6.977427893,25.64665774,8.55,'11111222,11111222,11111222' 
TABS,ioos:station:wmo:42043:1,2017-02-03T12:00:00Z,28.9818,-94.9186,4.0,6.91874266,31.64519434,8.45,'11111222,11111222,11111222' 
TABS,ioos:station:wmo:42043:1,2017-02-03T12:30:00Z,28.9818,-94.9186,4.0,6.285546913,30.60391499,7.75,'11111222,11111222,11111222' 
TABS,ioos:station:wmo:42043:1,2017-02-03T13:00:00Z,28.9818,-94.9186,4.0,7.169379332,30.14110461,8.97,'11111222,11111222,11111222' 
TABS,ioos:station:wmo:42043:1,2017-02-03T13:30:00Z,28.9818,-94.9186,4.0,7.791180912,30.97608552,9.56,'11111222,11111222,11111222' 
TABS,ioos:station:wmo:42043:1,2017-02-03T14:00:00Z,28.9818,-94.9186,4.0,8.048807365,37.68114008,9.59,'11111222,11111222,11111222' 
TABS,ioos:station:wmo:42043:1,2017-02-03T14:30:00Z,28.9818,-94.9186,4.0,8.455915089,28.23164178,10.38,'11111222,11111222,11111222' 
TABS,ioos:station:wmo:42043:1,2017-02-03T15:00:00Z,28.9818,-94.9186,4.0,8.318665758,32.83012154,9.94,'11111222,11111222,11111222' 
TABS,ioos:station:wmo:42043:1,2017-02-03T15:30:00Z,28.9818,-94.9186,4.0,8.348245325,37.30884983,9.86,'11111222,11111222,11111222' 
TABS,ioos:station:wmo:42043:1,2017-02-03T16:00:00Z,28.9818,-94.9186,4.0,7.460241283,40.65097089,9.16,'11111222,11111222,11111222' 
TABS,ioos:station:wmo:42043:1,2017-02-03T16:30:00Z,28.9818,-94.9186,4.0,7.747728699,42.95987971,9.62,'11111222,11111222,11111222' 
TABS,ioos:station:wmo:42043:1,2017-02-03T17:00:00Z,28.9818,-94.9186,4.0,6.599674234,43.46479849,7.8,'11111222,11111222,11111222' 
TABS,ioos:station:wmo:42043:1,2017-02-03T17:30:00Z,28.9818,-94.9186,4.0,6.386391783,42.0802626,7.62,'11111222,11111222,11111222' 
TABS,ioos:station:wmo:42043:1,2017-02-03T18:00:00Z,28.9818,-94.9186,4.0,6.825694104,39.59031585,8.1,'11111222,11111222,11111222' 
TABS,ioos:station:wmo:42043:1,2017-02-03T18:30:00Z,28.9818,-94.9186,4.0,6.266617908,37.67421083,7.83,'11111222,11111222,11111222' 
TABS,ioos:station:wmo:42043:1,2017-02-03T19:00:00Z,28.9818,-94.9186,4.0,6.867874489,34.49963856,8.49,'11111222,11111222,11111222' 
TABS,ioos:station:wmo:42043:1,2017-02-03T19:30:00Z,28.9818,-94.9186,4.0,6.570882741,33.0126135,7.82,'11111222,11111222,11111222' 
TABS,ioos:station:wmo:42043:1,2017-02-03T20:00:00Z,28.9818,-94.9186,4.0,7.326069888,36.61933493,9.03,'11111222,11111222,11111222' 
TABS,ioos:station:wmo:42043:1,2017-02-03T20:30:00Z,28.9818,-94.9186,4.0,7.938274372,36.39323092,9.91,'11111222,11111222,11111222' 
TABS,ioos:station:wmo:42043:1,2017-02-03T21:00:00Z,28.9818,-94.9186,4.0,8.101413457,33.57208798,9.57,'11111222,11111222,11111222' 
TABS,ioos:station:wmo:42043:1,2017-02-03T21:30:00Z,28.9818,-94.9186,4.0,6.852298884,36.3344558,7.98,'11111222,11111222,11111222' 
TABS,ioos:station:wmo:42043:1,2017-02-03T22:00:00Z,28.9818,-94.9186,4.0,6.854144731,43.52179633,8.22,'11111222,11111222,11111222' 
TABS,ioos:station:wmo:42043:1,2017-02-03T22:30:00Z,28.9818,-94.9186,4.0,7.780809727,50.10924663,9.32,'11111222,11111222,11111222' 
TABS,ioos:station:wmo:42043:1,2017-02-03T23:00:00Z,28.9818,-94.9186,4.0,7.903954706,51.31721921,9.08,'11111222,11111222,11111222' 
TABS,ioos:station:wmo:42043:1,2017-02-03T23:30:00Z,28.9818,-94.9186,4.0,7.474790967,56.73478213,9.09,'11111222,11111222,11111222' 
TABS,ioos:station:wmo:42043:1,2017-02-04T00:00:00Z,28.9818,-94.9186,4.0,6.720394334,60.6883363,8.47,'11111222,11111222,11111222' 
TABS,ioos:station:wmo:42043:1,2017-02-04T00:30:00Z,28.9818,-94.9186,4.0,7.381395532,58.74302943,8.83,'11111222,11111222,11111222' 
TABS,ioos:station:wmo:42043:1,2017-02-04T01:00:00Z,28.9818,-94.9186,4.0,7.124745609,59.83583032,8.8,'11111222,11111222,11111222' 
TABS,ioos:station:wmo:42043:1,2017-02-04T01:30:00Z,28.9818,-94.9186,4.0,7.732696813,57.89216755,9.43,'11111222,11111222,11111222' 
TABS,ioos:station:wmo:42043:1,2017-02-04T02:00:00Z,28.9818,-94.9186,4.0,7.912806076,56.38992067,9.58,'11111222,11111222,11111222' 
TABS,ioos:station:wmo:42043:1,2017-02-04T02:30:00Z,28.9818,-94.9186,4.0,7.712950149,61.83976365,9.5,'11111222,11111222,11111222' 
TABS,ioos:station:wmo:42043:1,2017-02-04T03:00:00Z,28.9818,-94.9186,4.0,8.068704977,62.54537203,9.98,'11111222,11111222,11111222' 
TABS,ioos:station:wmo:42043:1,2017-02-04T03:30:00Z,28.9818,-94.9186,4.0,8.239569163,70.35515614,10.22,'11111222,11111222,11111222' 
TABS,ioos:station:wmo:42043:1,2017-02-04T04:00:00Z,28.9818,-94.9186,4.0,8.165249537,39.28416738,9.8,'11111222,11111222,11111222' 
TABS,ioos:station:wmo:42043:1,2017-02-04T04:30:00Z,28.9818,-94.9186,4.0,8.177731959,42.0754355,9.6,'11111222,11111222,11111222' 
TABS,ioos:station:wmo:42043:1,2017-02-04T05:00:00Z,28.9818,-94.9186,4.0,8.080748728,53.90973445,9.68,'11111222,11111222,11111222' 
TABS,ioos:station:wmo:42043:1,2017-02-04T05:30:00Z,28.9818,-94.9186,4.0,7.991057502,54.06190492,9.52,'11111222,11111222,11111222' 
TABS,ioos:station:wmo:42043:1,2017-02-04T06:00:00Z,28.9818,-94.9186,4.0,8.402434171,71.11183803,9.99,'11111222,11111222,11111222' 
TABS,ioos:station:wmo:42043:1,2017-02-04T06:30:00Z,28.9818,-94.9186,4.0,8.256373296,77.47832769,9.75,'11111222,11111222,11111222' 
TABS,ioos:station:wmo:42043:1,2017-02-04T07:00:00Z,28.9818,-94.9186,4.0,8.348077623,75.9966605,10.49,'11111222,11111222,11111222' 
TABS,ioos:station:wmo:42043:1,2017-02-04T07:30:00Z,28.9818,-94.9186,4.0,8.718078917,80.55888777,10.44,'11111222,11111222,11111222' 
TABS,ioos:station:wmo:42043:1,2017-02-04T08:00:00Z,28.9818,-94.9186,4.0,7.855755852,79.73389753,9.77,'11111222,11111222,11111222' 
TABS,ioos:station:wmo:42043:1,2017-02-04T08:30:00Z,28.9818,-94.9186,4.0,8.685142486,82.45726631,10.39,'11111222,11111222,11111222' 
TABS,ioos:station:wmo:42043:1,2017-02-04T09:00:00Z,28.9818,-94.9186,4.0,8.32149626,84.27529712,10.19,'11111222,11111222,11111222' 
TABS,ioos:station:wmo:42043:1,2017-02-04T09:30:00Z,28.9818,-94.9186,4.0,7.787868771,87.42374824,10.12,'11111222,11111222,11111222' 
TABS,ioos:station:wmo:42043:1,2017-02-04T10:00:00Z,28.9818,-94.9186,4.0,8.066139101,83.23581119,9.37,'11111222,11111222,11111222' 
TABS,ioos:station:wmo:42043:1,2017-02-04T10:30:00Z,28.9818,-94.9186,4.0,7.262182867,78.64325477,8.58,'11111222,11111222,11111222' 
TABS,ioos:station:wmo:42043:1,2017-02-04T11:00:00Z,28.9818,-94.9186,4.0,7.68123037,73.9005308,9.5,'11111222,11111222,11111222' 
TABS,ioos:station:wmo:42043:1,2017-02-04T11:30:00Z,28.9818,-94.9186,4.0,8.232678786,88.53791745,10.2,'11111222,11111222,11111222' 
TABS,ioos:station:wmo:42043:1,2017-02-04T12:00:00Z,28.9818,-94.9186,4.0,7.770102959,90.29537659,9.71,'11111222,11111222,11111222' 
TABS,ioos:station:wmo:42043:1,2017-02-04T12:30:00Z,28.9818,-94.9186,4.0,7.78543512,93.60888133,9.98,'11111222,11111222,11111222' 
TABS,ioos:station:wmo:42043:1,2017-02-04T13:00:00Z,28.9818,-94.9186,4.0,8.260798993,95.69719785,10.24,'11111222,11111222,11111222' 
TABS,ioos:station:wmo:42043:1,2017-02-04T13:30:00Z,28.9818,-94.9186,4.0,8.196645655,92.30778852,9.67,'11111222,11111222,11111222' 
TABS,ioos:station:wmo:42043:1,2017-02-04T14:00:00Z,28.9818,-94.9186,4.0,8.021533519,93.07326755,9.71,'11111222,11111222,11111222' 
TABS,ioos:station:wmo:42043:1,2017-02-04T14:30:00Z,28.9818,-94.9186,4.0,8.916557632,95.85805984,10.5,'11111222,11111222,11111222' 
TABS,ioos:station:wmo:42043:1,2017-02-04T15:00:00Z,28.9818,-94.9186,4.0,8.792047543,94.89393653,10.61,'11111222,11111222,11111222' 
TABS,ioos:station:wmo:42043:1,2017-02-04T15:30:00Z,28.9818,-94.9186,4.0,7.776181582,92.28513584,9.21,'11111222,11111222,11111222' 
TABS,ioos:station:wmo:42043:1,2017-02-04T16:00:00Z,28.9818,-94.9186,4.0,8.370215051,90.41113536,9.86,'11111222,11111222,11111222' 
TABS,ioos:station:wmo:42043:1,2017-02-04T16:30:00Z,28.9818,-94.9186,4.0,8.460212763,90.4067662,10.34,'11111222,11111222,11111222' 
TABS,ioos:station:wmo:42043:1,2017-02-04T17:00:00Z,28.9818,-94.9186,4.0,8.189291789,92.73005339,9.53,'11111222,11111222,11111222' 
TABS,ioos:station:wmo:42043:1,2017-02-04T17:30:00Z,28.9818,-94.9186,4.0,8.134432986,94.44233351,9.37,'11111222,11111222,11111222' 
TABS,ioos:station:wmo:42043:1,2017-02-04T18:00:00Z,28.9818,-94.9186,4.0,8.056879048,95.48456485,9.47,'11111222,11111222,11111222' 
TABS,ioos:station:wmo:42043:1,2017-02-04T18:30:00Z,28.9818,-94.9186,4.0,7.817448433,96.31631659,9.1,'11111222,11111222,11111222' 
TABS,ioos:station:wmo:42043:1,2017-02-04T19:00:00Z,28.9818,-94.9186,4.0,7.276709421,95.75800929,8.62,'11111222,11111222,11111222' 
TABS,ioos:station:wmo:42043:1,2017-02-04T19:30:00Z,28.9818,-94.9186,4.0,7.21108175,98.0518478,8.51,'11111222,11111222,11111222' 
TABS,ioos:station:wmo:42043:1,2017-02-04T20:00:00Z,28.9818,-94.9186,4.0,7.781529413,98.79694482,9.21,'11111222,11111222,11111222' 
TABS,ioos:station:wmo:42043:1,2017-02-04T20:30:00Z,28.9818,-94.9186,4.0,7.686728823,104.8501787,9.0,'11111222,11111222,11111222' 
TABS,ioos:station:wmo:42043:1,2017-02-04T21:00:00Z,28.9818,-94.9186,4.0,7.848898012,108.1121475,8.97,'11111222,11111222,11111222' 
TABS,ioos:station:wmo:42043:1,2017-02-04T21:30:00Z,28.9818,-94.9186,4.0,7.880418771,110.7351207,9.31,'11111222,11111222,11111222' 
TABS,ioos:station:wmo:42043:1,2017-02-04T22:00:00Z,28.9818,-94.9186,4.0,7.808796322,113.1507853,9.27,'11111222,11111222,11111222' 
TABS,ioos:station:wmo:42043:1,2017-02-04T22:30:00Z,28.9818,-94.9186,4.0,7.331227728,115.4469062,8.88,'11111222,11111222,11111222' 
TABS,ioos:station:wmo:42043:1,2017-02-04T23:00:00Z,28.9818,-94.9186,4.0,7.148097649,114.1988715,8.37,'11111222,11111222,11111222' 
TABS,ioos:station:wmo:42043:1,2017-02-04T23:30:00Z,28.9818,-94.9186,4.0,7.248310148,114.7975871,9.05,'11111222,11111222,11111222' 
TABS,ioos:station:wmo:42043:1,2017-02-05T00:00:00Z,28.9818,-94.9186,4.0,7.266725535,124.0621701,9.03,'11111222,11111222,11111222' 
TABS,ioos:station:wmo:42043:1,2017-02-05T00:30:00Z,28.9818,-94.9186,4.0,7.511963791,128.7316094,9.32,'11111222,11111222,11111222' 
TABS,ioos:station:wmo:42043:1,2017-02-05T01:00:00Z,28.9818,-94.9186,4.0,7.473265685,131.5829278,8.69,'11111222,11111222,11111222' 
TABS,ioos:station:wmo:42043:1,2017-02-05T01:30:00Z,28.9818,-94.9186,4.0,7.067007853,129.0273324,8.59,'11111222,11111222,11111222' 
TABS,ioos:station:wmo:42043:1,2017-02-05T02:00:00Z,28.9818,-94.9186,4.0,6.704662557,129.0071382,7.79,'11111222,11111222,11111222' 
TABS,ioos:station:wmo:42043:1,2017-02-05T02:30:00Z,28.9818,-94.9186,4.0,5.753477209,128.8623213,6.69,'11111222,11111222,11111222' 
TABS,ioos:station:wmo:42043:1,2017-02-05T03:00:00Z,28.9818,-94.9186,4.0,5.553422368,130.5456679,6.41,'11111222,11111222,11111222' 
TABS,ioos:station:wmo:42043:1,2017-02-05T03:30:00Z,28.9818,-94.9186,4.0,5.066606359,129.3136058,6.02,'11111222,11111222,11111222' 
TABS,ioos:station:wmo:42043:1,2017-02-05T04:00:00Z,28.9818,-94.9186,4.0,5.09438907,141.3756218,6.29,'11111222,11111222,11111222' 
TABS,ioos:station:wmo:42043:1,2017-02-05T04:30:00Z,28.9818,-94.9186,4.0,5.474614142,142.2721799,6.43,'11111222,11111222,11111222' 
TABS,ioos:station:wmo:42043:1,2017-02-05T05:00:00Z,28.9818,-94.9186,4.0,5.572297551,146.9376253,6.44,'11111222,11111222,11111222' 
TABS,ioos:station:wmo:42043:1,2017-02-05T05:30:00Z,28.9818,-94.9186,4.0,5.87265698,147.4467836,6.86,'11111222,11111222,11111222' 
TABS,ioos:station:wmo:42043:1,2017-02-05T06:00:00Z,28.9818,-94.9186,4.0,5.795248053,149.6299788,7.07,'11111222,11111222,11111222' 
TABS,ioos:station:wmo:42043:1,2017-02-05T06:30:00Z,28.9818,-94.9186,4.0,4.716693757,151.3704283,5.72,'11111222,11111222,11111222' 
TABS,ioos:station:wmo:42043:1,2017-02-05T07:00:00Z,28.9818,-94.9186,4.0,3.793006723,150.4614973,4.41,'11111222,11111222,11111222' 
TABS,ioos:station:wmo:42043:1,2017-02-05T07:30:00Z,28.9818,-94.9186,4.0,4.292982646,149.7918786,4.83,'11111222,11111222,11111222' 
TABS,ioos:station:wmo:42043:1,2017-02-05T08:00:00Z,28.9818,-94.9186,4.0,4.987043212,156.9827025,6.01,'11111222,11111222,11111222' 
TABS,ioos:station:wmo:42043:1,2017-02-05T08:30:00Z,28.9818,-94.9186,4.0,4.686331188,159.5157613,5.65,'11111222,11111222,11111222' 
TABS,ioos:station:wmo:42043:1,2017-02-05T09:00:00Z,28.9818,-94.9186,4.0,4.666754761,158.7688256,5.45,'11111222,11111222,11111222' 
TABS,ioos:station:wmo:42043:1,2017-02-05T09:30:00Z,28.9818,-94.9186,4.0,4.506084775,159.4739773,5.29,'11111222,11111222,11111222' 
TABS,ioos:station:wmo:42043:1,2017-02-05T10:00:00Z,28.9818,-94.9186,4.0,4.462846625,164.0019473,5.44,'11111222,11111222,11111222' 
TABS,ioos:station:wmo:42043:1,2017-02-05T10:30:00Z,28.9818,-94.9186,4.0,3.744182154,159.1934681,4.48,'11111222,11111222,11111222' 
TABS,ioos:station:wmo:42043:1,2017-02-05T11:00:00Z,28.9818,-94.9186,4.0,3.264965543,154.2200442,3.69,'11111222,11111222,11111222' 
TABS,ioos:station:wmo:42043:1,2017-02-05T11:30:00Z,28.9818,-94.9186,4.0,2.751817581,145.2129594,3.36,'11111222,11111222,11111222' 
TABS,ioos:station:wmo:42043:1,2017-02-05T12:00:00Z,28.9818,-94.9186,4.0,2.498039231,142.8092899,2.86,'11111222,11111222,11111222' 
TABS,ioos:station:wmo:42043:1,2017-02-05T12:30:00Z,28.9818,-94.9186,4.0,2.351850335,131.5529369,2.7,'11111222,11111222,11111222' 
TABS,ioos:station:wmo:42043:1,2017-02-05T13:00:00Z,28.9818,-94.9186,4.0,2.08434642,125.8256099,2.5,'11111222,11111222,11111222' 
TABS,ioos:station:wmo:42043:1,2017-02-05T13:30:00Z,28.9818,-94.9186,4.0,2.213820228,109.2537802,2.65,'11111222,11111222,11111222' 
TABS,ioos:station:wmo:42043:1,2017-02-05T14:00:00Z,28.9818,-94.9186,4.0,2.731300057,113.7498599,3.29,'11111222,11111222,11111222' 
TABS,ioos:station:wmo:42043:1,2017-02-05T14:30:00Z,28.9818,-94.9186,4.0,2.670805122,112.9172699,3.13,'11111222,11111222,11111222' 
TABS,ioos:station:wmo:42043:1,2017-02-05T15:00:00Z,28.9818,-94.9186,4.0,2.607220742,119.9087783,3.15,'11111222,11111222,11111222' 
TABS,ioos:station:wmo:42043:1,2017-02-05T15:30:00Z,28.9818,-94.9186,4.0,2.841126537,125.2566972,3.28,'11111222,11111222,11111222' 
TABS,ioos:station:wmo:42043:1,2017-02-05T16:00:00Z,28.9818,-94.9186,4.0,2.680018657,129.0941884,3.09,'11111222,11111222,11111222' 
TABS,ioos:station:wmo:42043:1,2017-02-05T16:30:00Z,28.9818,-94.9186,4.0,2.26715681,138.5766417,2.63,'11111222,11111222,11111222' 
TABS,ioos:station:wmo:42043:1,2017-02-05T17:00:00Z,28.9818,-94.9186,4.0,2.793152341,134.5651673,3.15,'11111222,11111222,11111222' 
TABS,ioos:station:wmo:42043:1,2017-02-05T17:30:00Z,28.9818,-94.9186,4.0,2.957363691,133.0820398,3.38,'11111222,11111222,11111222' 
TABS,ioos:station:wmo:42043:1,2017-02-05T18:00:00Z,28.9818,-94.9186,4.0,3.1004032,142.2063558,3.72,'11111222,11111222,11111222' 
TABS,ioos:station:wmo:42043:1,2017-02-05T18:30:00Z,28.9818,-94.9186,4.0,2.892144533,135.4205696,3.37,'11111222,11111222,11111222' 